Time,TemperatureF,DewpointF,PressureIn,WindDirection,WindDirectionDegrees,WindSpeedMPH,WindSpeedGustMPH,Humidity,HourlyPrecipIn,Conditions,Clouds,dailyrainin,SoftwareType,DateUTC
2013-01-02 00:02:00,6.0,-1.0,-100.00,WSW,255,4.0,6.0,71,0.00,,,-99.99,,2013-01-02 06:02:00,
2013-01-02 00:12:00,7.0,-1.0,-100.00,WSW,250,5.0,6.0,71,0.00,,,-99.99,,2013-01-02 06:12:00,
2013-01-02 00:22:00,6.0,-1.0,-100.00,WSW,245,6.0,6.0,71,0.00,,,-99.99,,2013-01-02 06:22:00,
2013-01-02 00:32:00,7.0,-1.0,-100.00,WSW,255,5.0,6.0,71,0.00,,,-99.99,,2013-01-02 06:32:00,
2013-01-02 00:42:00,7.0,-1.0,-100.00,WSW,255,5.0,6.0,71,0.00,,,-99.99,,2013-01-02 06:42:00,
2013-01-02 00:52:00,6.0,-1.0,-100.00,West,260,6.0,7.0,71,0.00,,,-99.99,,2013-01-02 06:52:00,
2013-01-02 01:02:00,6.0,-1.0,-100.00,West,260,6.0,7.0,71,0.00,,,-99.99,,2013-01-02 07:02:00,
2013-01-02 01:12:00,7.0,-1.0,-100.00,West,265,6.0,7.0,70,0.00,,,-99.99,,2013-01-02 07:12:00,
2013-01-02 01:22:00,6.0,-1.0,-100.00,West,270,7.0,9.0,70,0.00,,,-99.99,,2013-01-02 07:22:00,
2013-01-02 01:32:00,7.0,-1.0,-100.00,WSW,245,6.0,9.0,69,0.00,,,-99.99,,2013-01-02 07:32:00,
2013-01-02 01:42:00,7.0,-1.0,-100.00,WSW,245,6.0,9.0,69,0.00,,,-99.99,,2013-01-02 07:42:00,
2013-01-02 01:52:00,7.0,-1.0,-100.00,WSW,245,5.0,7.0,69,0.00,,,-99.99,,2013-01-02 07:52:00,
2013-01-02 02:02:00,7.0,-1.0,-100.00,WSW,245,5.0,7.0,69,0.00,,,-99.99,,2013-01-02 08:02:00,
2013-01-02 02:11:00,7.0,-1.0,-100.00,WSW,240,4.0,6.0,69,0.00,,,-99.99,,2013-01-02 08:11:00,
2013-01-02 02:22:00,7.0,0.0,-100.00,SW,235,4.0,6.0,70,0.00,,,-99.99,,2013-01-02 08:22:00,
2013-01-02 02:32:00,7.0,0.0,-100.00,SW,235,6.0,7.0,70,0.00,,,-99.99,,2013-01-02 08:32:00,
2013-01-02 02:42:00,7.0,0.0,-100.00,SW,235,6.0,7.0,70,0.00,,,-99.99,,2013-01-02 08:42:00,
2013-01-02 02:52:00,7.0,0.0,-100.00,SW,225,6.0,8.0,70,0.00,,,-99.99,,2013-01-02 08:52:00,
2013-01-02 03:02:00,7.0,0.0,-100.00,SW,225,6.0,8.0,70,0.00,,,-99.99,,2013-01-02 09:02:00,
2013-01-02 03:12:00,7.0,-1.0,-100.00,SW,215,5.0,6.0,70,0.00,,,-99.99,,2013-01-02 09:12:00,
2013-01-02 03:22:00,7.0,-1.0,-100.00,SW,220,6.0,8.0,71,0.00,,,-99.99,,2013-01-02 09:22:00,
2013-01-02 03:32:00,7.0,0.0,-100.00,SW,225,5.0,7.0,71,0.00,,,-99.99,,2013-01-02 09:32:00,
2013-01-02 03:43:00,7.0,0.0,-100.00,SW,225,5.0,7.0,71,0.00,,,-99.99,,2013-01-02 09:43:00,
2013-01-02 03:52:00,8.0,0.0,-100.00,SW,220,9.0,10.0,71,0.00,,,-99.99,,2013-01-02 09:52:00,
2013-01-02 04:02:00,8.0,0.0,-100.00,SW,220,9.0,10.0,71,0.00,,,-99.99,,2013-01-02 10:02:00,
2013-01-02 04:12:00,8.0,0.0,-100.00,SW,220,7.0,10.0,71,0.00,,,-99.99,,2013-01-02 10:12:00,
2013-01-02 04:22:00,8.0,0.0,-100.00,SW,220,7.0,9.0,71,0.00,,,-99.99,,2013-01-02 10:22:00,
2013-01-02 04:32:00,7.0,0.0,-100.00,SW,215,7.0,9.0,71,0.00,,,-99.99,,2013-01-02 10:32:00,
2013-01-02 04:42:00,7.0,0.0,-100.00,SW,215,7.0,9.0,71,0.00,,,-99.99,,2013-01-02 10:42:00,
2013-01-02 04:52:00,8.0,1.0,-100.00,SW,220,9.0,10.0,71,0.00,,,-99.99,,2013-01-02 10:52:00,
2013-01-02 05:02:00,8.0,1.0,-100.00,SW,220,9.0,10.0,71,0.00,,,-99.99,,2013-01-02 11:02:00,
2013-01-02 05:12:00,8.0,1.0,-100.00,SW,215,9.0,10.0,70,0.00,,,-99.99,,2013-01-02 11:12:00,
2013-01-02 05:22:00,8.0,1.0,-100.00,SW,220,8.0,10.0,69,0.00,,,-99.99,,2013-01-02 11:22:00,
2013-01-02 05:32:00,9.0,1.0,-100.00,SW,215,9.0,12.0,69,0.00,,,-99.99,,2013-01-02 11:32:00,
2013-01-02 05:42:00,9.0,1.0,-100.00,SW,215,9.0,12.0,69,0.00,,,-99.99,,2013-01-02 11:42:00,
2013-01-02 05:52:00,9.0,1.0,-100.00,SSW,210,8.0,11.0,69,0.00,,,-99.99,,2013-01-02 11:52:00,
2013-01-02 06:02:00,9.0,1.0,-100.00,SSW,210,8.0,11.0,69,0.00,,,-99.99,,2013-01-02 12:02:00,
2013-01-02 06:12:00,9.0,1.0,-100.00,SW,215,7.0,9.0,69,0.00,,,-99.99,,2013-01-02 12:12:00,
2013-01-02 06:22:00,9.0,1.0,-100.00,SSW,210,7.0,9.0,69,0.00,,,-99.99,,2013-01-02 12:22:00,
2013-01-02 06:32:00,9.0,1.0,-100.00,SSW,210,6.0,8.0,69,0.00,,,-99.99,,2013-01-02 12:32:00,
2013-01-02 06:42:00,9.0,1.0,-100.00,SSW,210,6.0,8.0,69,0.00,,,-99.99,,2013-01-02 12:42:00,
2013-01-02 06:52:00,10.0,2.0,-100.00,SSW,205,4.0,6.0,69,0.00,,,-99.99,,2013-01-02 12:52:00,
2013-01-02 07:02:00,10.0,2.0,-100.00,SSW,205,4.0,6.0,69,0.00,,,-99.99,,2013-01-02 13:02:00,
2013-01-02 07:12:00,9.0,1.0,-100.00,SSW,210,5.0,6.0,68,0.00,,,-99.99,,2013-01-02 13:12:00,
2013-01-02 07:22:00,9.0,1.0,-100.00,SSW,210,6.0,7.0,69,0.00,,,-99.99,,2013-01-02 13:22:00,
2013-01-02 07:32:00,9.0,1.0,-100.00,SSW,210,6.0,8.0,69,0.00,,,-99.99,,2013-01-02 13:32:00,
2013-01-02 07:42:00,9.0,1.0,-100.00,SSW,210,6.0,8.0,69,0.00,,,-99.99,,2013-01-02 13:42:00,
2013-01-02 07:52:00,9.0,2.0,-100.00,SSW,210,8.0,9.0,69,0.00,,,-99.99,,2013-01-02 13:52:00,
2013-01-02 08:02:00,9.0,2.0,-100.00,SSW,210,8.0,9.0,69,0.00,,,-99.99,,2013-01-02 14:02:00,
2013-01-02 08:12:00,10.0,2.0,-100.00,SSW,210,8.0,9.0,69,0.00,,,-99.99,,2013-01-02 14:12:00,
2013-01-02 08:22:00,11.0,2.0,-100.00,SW,215,9.0,11.0,68,0.00,,,-99.99,,2013-01-02 14:22:00,
2013-01-02 08:33:00,11.0,3.0,-100.00,SW,215,9.0,11.0,67,0.00,,,-99.99,,2013-01-02 14:33:00,
2013-01-02 08:42:00,11.0,3.0,-100.00,SW,215,9.0,11.0,67,0.00,,,-99.99,,2013-01-02 14:42:00,
2013-01-02 08:53:00,13.0,4.0,-100.00,SSW,210,9.0,10.0,67,0.00,,,-99.99,,2013-01-02 14:53:00,
2013-01-02 09:03:00,13.0,4.0,-100.00,SSW,210,9.0,10.0,67,0.00,,,-99.99,,2013-01-02 15:03:00,
2013-01-02 09:12:00,14.0,5.0,-100.00,SW,220,8.0,12.0,66,0.00,,,-99.99,,2013-01-02 15:12:00,
2013-01-02 09:22:00,15.0,5.0,-100.00,SW,215,7.0,12.0,65,0.00,,,-99.99,,2013-01-02 15:22:00,
2013-01-02 09:33:00,16.0,6.0,-100.00,SSW,210,7.0,11.0,62,0.00,,,-99.99,,2013-01-02 15:33:00,
2013-01-02 09:42:00,16.0,6.0,-100.00,SSW,210,7.0,11.0,62,0.00,,,-99.99,,2013-01-02 15:42:00,
2013-01-02 09:52:00,17.0,6.0,-100.00,SW,230,7.0,12.0,61,0.00,,,-99.99,,2013-01-02 15:52:00,
2013-01-02 10:03:00,17.0,6.0,-100.00,SW,230,7.0,12.0,61,0.00,,,-99.99,,2013-01-02 16:03:00,
2013-01-02 10:12:00,18.0,7.0,-100.00,SW,235,7.0,12.0,61,0.00,,,-99.99,,2013-01-02 16:12:00,
2013-01-02 10:22:00,18.0,7.0,-100.00,WSW,245,9.0,12.0,60,0.00,,,-99.99,,2013-01-02 16:22:00,
2013-01-02 10:33:00,20.0,8.0,-100.00,WSW,250,11.0,17.0,59,0.00,,,-99.99,,2013-01-02 16:33:00,
2013-01-02 10:42:00,20.0,8.0,-100.00,WSW,250,11.0,17.0,59,0.00,,,-99.99,,2013-01-02 16:42:00,
2013-01-02 10:53:00,21.0,9.0,-100.00,WSW,255,10.0,15.0,59,0.00,,,-99.99,,2013-01-02 16:53:00,
2013-01-02 11:03:00,21.0,9.0,-100.00,WSW,255,10.0,15.0,59,0.00,,,-99.99,,2013-01-02 17:03:00,
2013-01-02 11:12:00,22.0,10.0,-100.00,WSW,255,8.0,14.0,59,0.00,,,-99.99,,2013-01-02 17:12:00,
2013-01-02 11:22:00,22.0,10.0,-100.00,WSW,255,11.0,14.0,59,0.00,,,-99.99,,2013-01-02 17:22:00,
2013-01-02 11:33:00,24.0,12.0,-100.00,West,265,7.0,12.0,58,0.00,,,-99.99,,2013-01-02 17:33:00,
2013-01-02 11:43:00,24.0,12.0,-100.00,West,265,7.0,12.0,58,0.00,,,-99.99,,2013-01-02 17:43:00,
2013-01-02 11:53:00,24.0,11.0,-100.00,West,260,11.0,14.0,57,0.00,,,-99.99,,2013-01-02 17:53:00,
2013-01-02 12:02:00,24.0,11.0,-100.00,West,260,11.0,14.0,57,0.00,,,-99.99,,2013-01-02 18:02:00,
2013-01-02 12:12:00,25.0,12.0,-100.00,West,260,9.0,14.0,57,0.00,,,-99.99,,2013-01-02 18:12:00,
2013-01-02 12:22:00,26.0,13.0,-100.00,West,265,9.0,12.0,56,0.00,,,-99.99,,2013-01-02 18:22:00,
2013-01-02 12:33:00,27.0,13.0,-100.00,West,265,8.0,12.0,55,0.00,,,-99.99,,2013-01-02 18:33:00,
2013-01-02 12:42:00,27.0,13.0,-100.00,West,265,8.0,12.0,55,0.00,,,-99.99,,2013-01-02 18:42:00,
2013-01-02 12:53:00,28.0,14.0,-100.00,West,265,9.0,12.0,53,0.00,,,-99.99,,2013-01-02 18:53:00,
2013-01-02 13:03:00,28.0,14.0,-100.00,West,265,9.0,12.0,53,0.00,,,-99.99,,2013-01-02 19:03:00,
2013-01-02 13:12:00,29.0,14.0,-100.00,West,260,6.0,12.0,53,0.00,,,-99.99,,2013-01-02 19:12:00,
2013-01-02 13:22:00,29.0,14.0,-100.00,West,260,7.0,13.0,52,0.00,,,-99.99,,2013-01-02 19:22:00,
2013-01-02 13:32:00,29.0,14.0,-100.00,WSW,250,11.0,15.0,52,0.00,,,-99.99,,2013-01-02 19:32:00,
2013-01-02 13:42:00,29.0,14.0,-100.00,WSW,250,11.0,15.0,52,0.00,,,-99.99,,2013-01-02 19:42:00,
2013-01-02 13:52:00,30.0,15.0,-100.00,West,260,11.0,16.0,53,0.00,,,-99.99,,2013-01-02 19:52:00,
2013-01-02 14:03:00,30.0,15.0,-100.00,West,260,11.0,16.0,53,0.00,,,-99.99,,2013-01-02 20:03:00,
2013-01-02 14:12:00,30.0,16.0,-100.00,West,265,11.0,16.0,53,0.00,,,-99.99,,2013-01-02 20:12:00,
2013-01-02 14:22:00,31.0,16.0,-100.00,West,260,9.0,16.0,53,0.00,,,-99.99,,2013-01-02 20:22:00,
2013-01-02 14:33:00,32.0,17.0,-100.00,West,270,7.0,12.0,53,0.00,,,-99.99,,2013-01-02 20:33:00,
2013-01-02 14:42:00,32.0,17.0,-100.00,West,270,7.0,12.0,53,0.00,,,-99.99,,2013-01-02 20:42:00,
2013-01-02 14:53:00,33.0,18.0,-100.00,West,275,8.0,13.0,53,0.00,,,-99.99,,2013-01-02 20:53:00,
2013-01-02 15:03:00,33.0,18.0,-100.00,West,275,8.0,13.0,53,0.00,,,-99.99,,2013-01-02 21:03:00,
2013-01-02 15:12:00,33.0,18.0,-100.00,WNW,290,11.0,14.0,53,0.00,,,-99.99,,2013-01-02 21:12:00,
2013-01-02 15:22:00,32.0,18.0,-100.00,WNW,290,10.0,14.0,54,0.00,,,-99.99,,2013-01-02 21:22:00,
2013-01-02 15:32:00,32.0,19.0,-100.00,WNW,290,8.0,12.0,56,0.00,,,-99.99,,2013-01-02 21:32:00,
2013-01-02 15:42:00,32.0,19.0,-100.00,WNW,290,8.0,12.0,56,0.00,,,-99.99,,2013-01-02 21:42:00,
2013-01-02 15:52:00,32.0,18.0,-100.00,WNW,295,7.0,9.0,57,0.00,,,-99.99,,2013-01-02 21:52:00,
2013-01-02 16:03:00,32.0,18.0,-100.00,WNW,295,7.0,9.0,57,0.00,,,-99.99,,2013-01-02 22:03:00,
2013-01-02 16:12:00,31.0,18.0,-100.00,WNW,290,7.0,9.0,57,0.00,,,-99.99,,2013-01-02 22:12:00,
2013-01-02 16:22:00,31.0,18.0,-100.00,WNW,295,7.0,8.0,58,0.00,,,-99.99,,2013-01-02 22:22:00,
2013-01-02 16:32:00,29.0,18.0,-100.00,West,275,3.0,6.0,60,0.00,,,-99.99,,2013-01-02 22:32:00,
2013-01-02 16:42:00,29.0,18.0,-100.00,West,275,3.0,6.0,60,0.00,,,-99.99,,2013-01-02 22:42:00,
2013-01-02 16:52:00,29.0,18.0,-100.00,WSW,240,4.0,6.0,62,0.00,,,-99.99,,2013-01-02 22:52:00,
2013-01-02 17:03:00,29.0,18.0,-100.00,WSW,240,4.0,6.0,62,0.00,,,-99.99,,2013-01-02 23:03:00,
2013-01-02 17:12:00,29.0,17.0,-100.00,SW,225,5.0,6.0,62,0.00,,,-99.99,,2013-01-02 23:12:00,
2013-01-02 17:22:00,29.0,17.0,-100.00,SSW,210,5.0,7.0,62,0.00,,,-99.99,,2013-01-02 23:22:00,
2013-01-02 17:33:00,27.0,17.0,-100.00,SW,215,6.0,8.0,63,0.00,,,-99.99,,2013-01-02 23:33:00,
2013-01-02 17:42:00,27.0,17.0,-100.00,SW,215,6.0,8.0,63,0.00,,,-99.99,,2013-01-02 23:42:00,
2013-01-02 17:52:00,27.0,17.0,-100.00,SW,225,7.0,11.0,63,0.00,,,-99.99,,2013-01-02 23:52:00,
2013-01-02 18:02:00,27.0,17.0,-100.00,SW,225,7.0,11.0,63,0.00,,,-99.99,,2013-01-03 00:02:00,
2013-01-02 18:12:00,27.0,17.0,-100.00,SW,230,6.0,9.0,63,0.00,,,-99.99,,2013-01-03 00:12:00,
2013-01-02 18:22:00,27.0,17.0,-100.00,SW,235,7.0,9.0,63,0.00,,,-99.99,,2013-01-03 00:22:00,
2013-01-02 18:38:00,27.0,17.0,-100.00,WSW,250,8.0,11.0,64,0.00,,,-99.99,,2013-01-03 00:38:00,
2013-01-02 18:52:00,28.0,17.0,-100.00,WSW,245,9.0,14.0,64,0.00,,,-99.99,,2013-01-03 00:52:00,
2013-01-02 19:02:00,28.0,17.0,-100.00,WSW,245,9.0,14.0,64,0.00,,,-99.99,,2013-01-03 01:02:00,
2013-01-02 19:12:00,28.0,17.0,-100.00,WSW,250,9.0,12.0,64,0.00,,,-99.99,,2013-01-03 01:12:00,
2013-01-02 19:22:00,28.0,17.0,-100.00,WSW,250,7.0,12.0,64,0.00,,,-99.99,,2013-01-03 01:22:00,
2013-01-02 19:32:00,28.0,18.0,-100.00,WSW,255,9.0,14.0,65,0.00,,,-99.99,,2013-01-03 01:32:00,
2013-01-02 19:42:00,28.0,18.0,-100.00,WSW,255,9.0,14.0,65,0.00,,,-99.99,,2013-01-03 01:42:00,
2013-01-02 19:52:00,27.0,18.0,-100.00,West,270,9.0,12.0,67,0.00,,,-99.99,,2013-01-03 01:52:00,
2013-01-02 20:02:00,27.0,18.0,-100.00,West,270,9.0,12.0,67,0.00,,,-99.99,,2013-01-03 02:02:00,
2013-01-02 20:12:00,28.0,18.0,-100.00,West,275,10.0,14.0,68,0.00,,,-99.99,,2013-01-03 02:12:00,
2013-01-02 20:22:00,28.0,19.0,-100.00,West,280,12.0,15.0,68,0.00,,,-99.99,,2013-01-03 02:22:00,
2013-01-02 20:33:00,28.0,19.0,-100.00,WNW,300,9.0,12.0,69,0.00,,,-99.99,,2013-01-03 02:33:00,
2013-01-02 20:42:00,28.0,19.0,-100.00,WNW,300,9.0,12.0,69,0.00,,,-99.99,,2013-01-03 02:42:00,
2013-01-02 20:52:00,28.0,19.0,-100.00,WNW,300,9.0,12.0,69,0.00,,,-99.99,,2013-01-03 02:52:00,
2013-01-02 21:02:00,27.0,19.0,-100.00,WNW,300,9.0,12.0,70,0.00,,,-99.99,,2013-01-03 03:02:00,
2013-01-02 21:12:00,27.0,19.0,-100.00,WNW,300,10.0,12.0,70,0.00,,,-99.99,,2013-01-03 03:12:00,
2013-01-02 21:22:00,27.0,19.0,-100.00,NW,310,9.0,14.0,70,0.00,,,-99.99,,2013-01-03 03:22:00,
2013-01-02 21:46:00,27.0,19.0,-100.00,NW,310,11.0,15.0,71,0.00,,,-99.99,,2013-01-03 03:46:00,
2013-01-02 21:52:00,27.0,19.0,-100.00,NW,315,9.0,12.0,71,0.00,,,-99.99,,2013-01-03 03:52:00,
2013-01-02 22:02:00,27.0,19.0,-100.00,NW,315,9.0,12.0,71,0.00,,,-99.99,,2013-01-03 04:02:00,
2013-01-02 22:12:00,27.0,19.0,-100.00,NW,315,7.0,10.0,72,0.00,,,-99.99,,2013-01-03 04:12:00,
2013-01-02 22:22:00,27.0,19.0,-100.00,NW,315,9.0,12.0,72,0.00,,,-99.99,,2013-01-03 04:22:00,
2013-01-02 22:32:00,27.0,19.0,-100.00,NW,315,7.0,11.0,73,0.00,,,-99.99,,2013-01-03 04:32:00,
2013-01-02 22:42:00,27.0,19.0,-100.00,NW,315,7.0,11.0,73,0.00,,,-99.99,,2013-01-03 04:42:00,
2013-01-02 22:52:00,26.0,19.0,-100.00,WNW,300,7.0,9.0,74,0.00,,,-99.99,,2013-01-03 04:52:00,
2013-01-02 23:03:00,26.0,19.0,-100.00,WNW,300,7.0,9.0,74,0.00,,,-99.99,,2013-01-03 05:03:00,
2013-01-02 23:12:00,26.0,19.0,-100.00,WNW,295,8.0,10.0,75,0.00,,,-99.99,,2013-01-03 05:12:00,
2013-01-02 23:22:00,26.0,20.0,-100.00,WNW,295,7.0,11.0,75,0.00,,,-99.99,,2013-01-03 05:22:00,
2013-01-02 23:33:00,26.0,20.0,-100.00,WNW,295,9.0,12.0,77,0.00,,,-99.99,,2013-01-03 05:33:00,
2013-01-02 23:42:00,26.0,20.0,-100.00,WNW,295,9.0,12.0,77,0.00,,,-99.99,,2013-01-03 05:42:00,
2013-01-02 23:52:00,26.0,20.0,-100.00,WNW,285,9.0,12.0,78,0.00,,,-99.99,,2013-01-03 05:52:00,